Location: Lawrence
(38.9720°N, 95.2350°W)
Time: 02:01:43
(UTC-05:00)

JAS-1B - Visible Passes

Search period start: 30 July 2014 00:00
Search period end: 09 August 2014 00:00
Orbit: 912 x 1743 km, 99.0° (Epoch: 28 July)

Date Brightness Start Highest point End Pass type
(mag) Time Alt. Az. Time Alt. Az. Time Alt. Az.
30 Jul 9.4 02:48:25 10° NE 02:55:40 26° E 03:01:05 13° SE visible
30 Jul 7.9 04:37:43 10° N 04:46:58 68° WNW 04:53:19 18° SSW visible
31 Jul 9.0 03:06:58 10° NNE 03:15:04 35° E 03:20:16 18° SSE visible
31 Jul 8.2 04:56:59 10° N 05:05:52 52° WNW 05:12:30 15° SW visible
01 Aug 8.5 03:25:44 10° NNE 03:34:24 47° E 03:39:27 21° SSE visible
01 Aug 8.5 05:16:21 10° N 05:24:40 40° WNW 05:31:41 11° SW visible
02 Aug 8.1 03:44:39 10° NNE 03:53:38 62° E 03:58:37 24° S visible
02 Aug 8.8 05:35:49 10° N 05:43:24 31° WNW 05:50:05 10° WSW visible
03 Aug 9.7 02:16:26 10° NE 02:20:35 14° E 02:24:27 10° ESE visible
03 Aug 7.8 04:03:40 10° NNE 04:12:46 81° ESE 04:17:48 25° S visible
04 Aug 9.5 02:34:08 10° NE 02:40:08 20° E 02:44:44 12° SE visible
04 Aug 7.7 04:22:48 10° N 04:31:49 79° WNW 04:36:58 24° SSW visible
05 Aug 9.1 02:52:27 10° NE 02:59:35 28° E 03:03:54 17° SE visible
05 Aug 7.9 04:42:01 10° N 04:50:45 60° WNW 04:56:08 20° SW visible
06 Aug 8.7 03:11:04 10° NNE 03:18:58 38° E 03:23:04 22° SE visible
06 Aug 8.2 05:01:20 10° N 05:09:36 46° WNW 05:15:18 16° SW visible
07 Aug 8.2 03:29:53 10° NNE 03:38:15 51° E 03:42:14 27° SSE visible
07 Aug 8.5 05:20:45 10° N 05:28:21 35° WNW 05:34:28 12° WSW visible
08 Aug 7.8 03:48:50 10° NNE 03:57:27 68° E 04:01:23 30° S visible
08 Aug 8.8 05:40:18 10° N 05:47:02 26° WNW 05:53:00 10° WSW visible
